This is the latest recevied weather packets stored in our database for station/object K7DC. If no packets are shown the sender has not sent any weather packets the latest 10 day(s).
| Time | Temp. | Humidity | Pressure | Rain* | Wind** | Luminosity | Snow |
|---|---|---|---|---|---|---|---|
| 1788484862 | 27.78° C | 57% | 1013.8 hPa | 0 mm | - | 12 W/m² | - |
| 1788484561 | 28.33° C | 57% | 1013.7 hPa | 0 mm | - | 15 W/m² | - |
| 1788484260 | 28.33° C | 57% | 1013.4 hPa | 0 mm | - | 24 W/m² | - |
| 1788483952 | 28.33° C | 58% | 1013.5 hPa | 0 mm | - | 34 W/m² | - |
| 1788483649 | 28.33° C | 58% | 1013.5 hPa | 0 mm | - | 41 W/m² | - |
| 1788483348 | 27.78° C | 58% | 1013.8 hPa | 0 mm | - | 42 W/m² | - |
| 1788483044 | 27.78° C | 58% | 1013.7 hPa | 0 mm | - | 48 W/m² | - |
| 1788482740 | 27.78° C | 58% | 1013.8 hPa | 0 mm | - | 61 W/m² | - |
| 1788482440 | 27.78° C | 58% | 1013.8 hPa | 0 mm | - | 79 W/m² | - |
| 1788482136 | 27.78° C | 60% | 1013.8 hPa | 0 mm | - | 91 W/m² | - |
| 1788481831 | 28.89° C | 59% | 1013.4 hPa | 0 mm | - | 93 W/m² | - |
| 1788481527 | 29.44° C | 54% | 1013.7 hPa | 0 mm | - | 93 W/m² | - |
| 1788481227 | 29.44° C | 49% | 1013.5 hPa | 0 mm | - | 101 W/m² | - |
| 1788480923 | 30° C | 49% | 1013.4 hPa | 0 mm | - | 107 W/m² | - |
| 1788480621 | 30° C | 48% | 1013.4 hPa | 0 mm | - | 101 W/m² | - |
| 1788480321 | 30° C | 48% | 1013.7 hPa | 0 mm | - | 109 W/m² | - |
| 1788480018 | 30° C | 47% | 1013.7 hPa | 0 mm | - | 125 W/m² | - |
| 1788479732 | 30° C | 46% | 1013.8 hPa | 0 mm | - | 119 W/m² | - |
| 1788479407 | 30.56° C | 49% | 1013.8 hPa | 0 mm | - | 94 W/m² | - |
| 1788479103 | 30.56° C | 48% | 1013.7 hPa | 0 mm | - | 83 W/m² | - |
| 1788478799 | 30.56° C | 50% | 1014 hPa | 0 mm | - | 86 W/m² | - |
| 1788478494 | 30.56° C | 51% | 1013.7 hPa | 0 mm | - | 95 W/m² | - |
| 1788478189 | 31.11° C | 51% | 1013.4 hPa | 0 mm | - | 109 W/m² | - |
| 1788477885 | 31.67° C | 49% | 1013.7 hPa | 0 mm | - | 109 W/m² | - |
| 1788477584 | 31.67° C | 45% | 1013.7 hPa | 0 mm | - | 105 W/m² | - |
* Rain latest hour (hover to see other rain measurements)
** Current wind speed in m/s (hover to see current wind gust speed)